カタログに戻る

SATCOM 3 DEB

運用中HEO
NORAD 49956·DEBRIS·🇺🇸 United States

打ち上げ Dec 7, 1979 から Cape Canaveral Space Force Station

Loading…

次のパス (今後24時間)

TLE

最新Source: Space-Track

元期: Sep 14, 2026, 01:39 UTC

1 49956U 79101AA  26257.06896322 -.00000161  00000-0  00000-0 0  9998
2 49956   8.1105  92.8935 5087553  84.6399 329.1953  1.79229966 15591

AllMySatでSATCOM 3 DEBをリアルタイム追跡

Download on the App Store